����,���ϕ���(m/s),���ϕ���,�ő�u�ԕ���(m/s),�ő啗��������,�C��(��),���x(%),10���Ԉړ��ώZ�J��(mm),1���Ԉړ��ώZ�J��(mm),���J��(mm),�݌v�J��(mm),����(���ώZ)(MJ/m2),����(���ώZ)(min),���n�C��(hPa),�C�ʋC��(hPa)
2020-08-03T00:00:00+09:00,2.7,��,3.8,��,25.6,90.3,0,0,0,0,17.59,337,1000,1013.3
2020-08-03T00:01:00+09:00,2.7,��,3.8,��,25.6,90.6,0,0,0,0,0,0,1000,1013.3
2020-08-03T00:02:00+09:00,2.7,��,3.8,��,25.6,90.9,0,0,0,0,0,0,1000,1013.3
2020-08-03T00:03:00+09:00,2.7,��쐼,3.8,��,25.6,91.1,0,0,0,0,0,0,1000,1013.3
2020-08-03T00:04:00+09:00,2.7,��,3.8,��,25.6,91.4,0,0,0,0,0,0,1000,1013.3
2020-08-03T00:05:00+09:00,2.6,��,3.8,��,25.6,91.4,0,0,0,0,0,0,1000,1013.3
2020-08-03T00:06:00+09:00,2.5,��,3.8,��,25.6,91.5,0,0,0,0,0,0,1000,1013.3
2020-08-03T00:07:00+09:00,2.4,��,3.8,��,25.5,91.3,0,0,0,0,0,0,1000,1013.3
2020-08-03T00:08:00+09:00,2.3,��,3.8,��,25.5,91.5,0,0,0,0,0,0,1000,1013.3
2020-08-03T00:09:00+09:00,2.2,��,3.8,��,25.5,91.7,0,0,0,0,0,0,1000,1013.3
2020-08-03T00:10:00+09:00,2.1,��,3.2,��쐼,25.5,91.7,0,0,0,0,0,0,1000,1013.3
2020-08-03T00:11:00+09:00,1.9,��,3.2,��쐼,25.6,91.7,0,0,0,0,0,0,1000,1013.3
2020-08-03T00:12:00+09:00,2,��,3.4,��,25.6,91.6,0,0,0,0,0,0,1000,1013.3
2020-08-03T00:13:00+09:00,2,��,3.4,��,25.6,91.4,0,0,0,0,0,0,1000,1013.3
2020-08-03T00:14:00+09:00,1.9,��,3.4,��,25.6,91.3,0,0,0,0,0,0,1000,1013.3
2020-08-03T00:15:00+09:00,1.9,��,3.4,��,25.6,91.1,0,0,0,0,0,0,999.9,1013.2
2020-08-03T00:16:00+09:00,1.8,��,3.4,��,25.6,91.1,0,0,0,0,0,0,999.9,1013.2
2020-08-03T00:17:00+09:00,1.9,��,3.4,��,25.6,91.1,0,0,0,0,0,0,999.9,1013.2
2020-08-03T00:18:00+09:00,1.9,��,3.4,��,25.7,91,0,0,0,0,0,0,999.9,1013.2
2020-08-03T00:19:00+09:00,1.9,��,3.4,��,25.8,90.8,0,0,0,0,0,0,999.9,1013.2
2020-08-03T00:20:00+09:00,1.9,��,3.4,��,25.7,90.2,0,0,0,0,0,0,999.9,1013.2
2020-08-03T00:21:00+09:00,2,��,3.4,��,25.7,90.1,0,0,0,0,0,0,999.9,1013.2
2020-08-03T00:22:00+09:00,2,��,3.2,��,25.7,90.1,0,0,0,0,0,0,999.9,1013.2
2020-08-03T00:23:00+09:00,2,��,3.2,��,25.6,90,0,0,0,0,0,0,999.9,1013.2
2020-08-03T00:24:00+09:00,2,��,3.2,��,25.6,90.4,0,0,0,0,0,0,999.9,1013.2
2020-08-03T00:25:00+09:00,2.1,��,3.8,��,25.6,90.5,0,0,0,0,0,0,999.9,1013.2
2020-08-03T00:26:00+09:00,2.2,��,3.9,��,25.6,90.4,0,0,0,0,0,0,999.9,1013.2
2020-08-03T00:27:00+09:00,2.3,��,3.9,��,25.6,90.6,0,0,0,0,0,0,999.8,1013.1
2020-08-03T00:28:00+09:00,2.3,��,3.9,��,25.7,90.8,0,0,0,0,0,0,999.8,1013.1
2020-08-03T00:29:00+09:00,2.4,��,3.9,��,25.7,90.7,0,0,0,0,0,0,999.8,1013.1
2020-08-03T00:30:00+09:00,2.4,��,3.9,��,25.7,90.3,0,0,0,0,0,0,999.8,1013.1
2020-08-03T00:31:00+09:00,2.5,��,3.9,��,25.7,90.2,0,0,0,0,0,0,999.8,1013.1
2020-08-03T00:32:00+09:00,2.5,��,3.9,��,25.6,90.2,0,0,0,0,0,0,999.8,1013.1
2020-08-03T00:33:00+09:00,2.5,��,3.9,��,25.6,90.3,0,0,0,0,0,0,999.8,1013.1
2020-08-03T00:34:00+09:00,2.6,��,3.9,��,25.7,90.4,0,0,0,0,0,0,999.7,1013
2020-08-03T00:35:00+09:00,2.5,��,3.9,��,25.7,90.3,0,0,0,0,0,0,999.7,1013
2020-08-03T00:36:00+09:00,2.5,��,3.9,��쐼,25.7,90.1,0,0,0,0,0,0,999.7,1013
2020-08-03T00:37:00+09:00,2.5,��,3.9,��쐼,25.7,90.2,0,0,0,0,0,0,999.7,1013
2020-08-03T00:38:00+09:00,2.5,��,3.9,��쐼,25.7,90,0,0,0,0,0,0,999.7,1013
2020-08-03T00:39:00+09:00,2.5,��,3.9,��쐼,25.7,89.7,0,0,0,0,0,0,999.7,1013
2020-08-03T00:40:00+09:00,2.5,��,3.7,��,25.7,89.7,0,0,0,0,0,0,999.7,1013
2020-08-03T00:41:00+09:00,2.5,��,3.7,��,25.7,89.8,0,0,0,0,0,0,999.7,1013
2020-08-03T00:42:00+09:00,2.5,��,3.7,��,25.7,89.4,0,0,0,0,0,0,999.7,1013
2020-08-03T00:43:00+09:00,2.5,��,3.7,��,25.7,89.4,0,0,0,0,0,0,999.6,1012.9
2020-08-03T00:44:00+09:00,2.5,��,3.7,��,25.8,89.5,0,0,0,0,0,0,999.6,1012.9
2020-08-03T00:45:00+09:00,2.5,��,3.7,��,25.7,89.2,0,0,0,0,0,0,999.6,1012.9
2020-08-03T00:46:00+09:00,2.5,��,3.7,��,25.7,89.3,0,0,0,0,0,0,999.6,1012.9
2020-08-03T00:47:00+09:00,2.6,��,3.9,��,25.7,89.2,0,0,0,0,0,0,999.6,1012.9
2020-08-03T00:48:00+09:00,2.6,��,3.9,��,25.7,89.2,0,0,0,0,0,0,999.6,1012.9
2020-08-03T00:49:00+09:00,2.5,��,3.9,��,25.7,89.3,0,0,0,0,0,0,999.6,1012.9
2020-08-03T00:50:00+09:00,2.5,��,3.9,��,25.7,89.3,0,0,0,0,0,0,999.6,1012.9
2020-08-03T00:51:00+09:00,2.5,��,3.9,��,25.7,89.2,0,0,0,0,0,0,999.6,1012.9
2020-08-03T00:52:00+09:00,2.5,��,3.9,��,25.7,89.2,0,0,0,0,0,0,999.6,1012.9
2020-08-03T00:53:00+09:00,2.5,��,3.9,��,25.6,89.2,0,0,0,0,0,0,999.6,1012.9
2020-08-03T00:54:00+09:00,2.5,��,3.9,��,25.6,89.3,0,0,0,0,0,0,999.6,1012.9
2020-08-03T00:55:00+09:00,2.6,��,4.1,��,25.6,89.3,0,0,0,0,0,0,999.6,1012.9
2020-08-03T00:56:00+09:00,2.5,��,4.1,��,25.7,89.6,0,0,0,0,0,0,999.6,1012.9
2020-08-03T00:57:00+09:00,2.4,��,4.1,��,25.7,89.5,0,0,0,0,0,0,999.5,1012.8
2020-08-03T00:58:00+09:00,2.3,��,4.1,��,25.7,89.2,0,0,0,0,0,0,999.5,1012.8
2020-08-03T00:59:00+09:00,2.2,��,4.1,��,25.7,89.3,0,0,0,0,0,0,999.5,1012.8
2020-08-03T01:00:00+09:00,2,��,4.1,��,25.6,89.4,0,0,0,0,0,0,999.5,1012.8
2020-08-03T01:01:00+09:00,2,��,4.1,��,25.6,89.4,0,0,0,0,0,0,999.5,1012.8
2020-08-03T01:02:00+09:00,1.9,��,4.1,��,25.5,89.5,0,0,0,0,0,0,999.5,1012.8
2020-08-03T01:03:00+09:00,1.9,��,4.1,��,25.5,89.8,0,0,0,0,0,0,999.5,1012.8
2020-08-03T01:04:00+09:00,1.9,��,4.1,��,25.5,89.9,0,0,0,0,0,0,999.5,1012.8
2020-08-03T01:05:00+09:00,1.8,��,3,��,25.5,90,0,0,0,0,0,0,999.5,1012.8
2020-08-03T01:06:00+09:00,1.8,��,3,��,25.5,90.2,0,0,0,0,0,0,999.5,1012.8
2020-08-03T01:07:00+09:00,1.8,��,2.9,��,25.6,90.4,0,0,0,0,0,0,999.5,1012.8
2020-08-03T01:08:00+09:00,1.8,��,3,��,25.4,90,0,0,0,0,0,0,999.5,1012.8
2020-08-03T01:09:00+09:00,1.9,��,3,��,25.4,90.1,0,0,0,0,0,0,999.5,1012.8
2020-08-03T01:10:00+09:00,2,��,3,��,25.4,90.4,0,0,0,0,0,0,999.5,1012.8
2020-08-03T01:11:00+09:00,2,��,3,��,25.3,90.4,0,0,0,0,0,0,999.5,1012.8
2020-08-03T01:12:00+09:00,2,��,3,��,25.3,90.8,0,0,0,0,0,0,999.4,1012.7
2020-08-03T01:13:00+09:00,2,��,3,��,25.3,91.1,0,0,0,0,0,0,999.4,1012.7
2020-08-03T01:14:00+09:00,2,��,3,��,25.3,91.3,0,0,0,0,0,0,999.4,1012.7
2020-08-03T01:15:00+09:00,2,��,3,��,25.3,91.3,0,0,0,0,0,0,999.4,1012.7
2020-08-03T01:16:00+09:00,2,��,3,��,25.3,91.3,0,0,0,0,0,0,999.4,1012.7
2020-08-03T01:17:00+09:00,2.1,��,3.4,��쐼,25.3,91.3,0,0,0,0,0,0,999.4,1012.7
2020-08-03T01:18:00+09:00,2.1,��,3.4,��쐼,25.3,91.2,0,0,0,0,0,0,999.4,1012.7
2020-08-03T01:19:00+09:00,2.2,��,4,��쐼,25.3,91,0,0,0,0,0,0,999.4,1012.7
2020-08-03T01:20:00+09:00,2.3,��,4,��쐼,25.3,90.9,0,0,0,0,0,0,999.4,1012.7
2020-08-03T01:21:00+09:00,2.3,��,4,��쐼,25.3,90.9,0,0,0,0,0,0,999.4,1012.7
2020-08-03T01:22:00+09:00,2.4,��,4,��쐼,25.4,90.8,0,0,0,0,0,0,999.4,1012.7
2020-08-03T01:23:00+09:00,2.5,��,4.3,��,25.4,90.5,0,0,0,0,0,0,999.4,1012.7
2020-08-03T01:24:00+09:00,2.6,��,4.3,��,25.4,90.5,0,0,0,0,0,0,999.3,1012.6
2020-08-03T01:25:00+09:00,2.7,��,4.3,��,25.4,90.2,0,0,0,0,0,0,999.3,1012.6
2020-08-03T01:26:00+09:00,2.8,��,4.3,��,25.4,90.2,0,0,0,0,0,0,999.3,1012.6
2020-08-03T01:27:00+09:00,2.8,��,4.3,��,25.4,90.3,0,0,0,0,0,0,999.3,1012.6
2020-08-03T01:28:00+09:00,2.9,��,4.3,��,25.4,90.2,0,0,0,0,0,0,999.3,1012.6
2020-08-03T01:29:00+09:00,2.9,��쐼,4.3,��,25.4,90.2,0,0,0,0,0,0,999.3,1012.6
2020-08-03T01:30:00+09:00,3,��쐼,4.4,��쐼,25.4,90,0,0,0,0,0,0,999.3,1012.6
2020-08-03T01:31:00+09:00,2.9,��쐼,4.4,��쐼,25.5,90,0,0,0,0,0,0,999.3,1012.6
2020-08-03T01:32:00+09:00,3,��쐼,4.4,��쐼,25.5,89.6,0,0,0,0,0,0,999.3,1012.6
2020-08-03T01:33:00+09:00,2.9,��쐼,4.4,��쐼,25.5,89.3,0,0,0,0,0,0,999.3,1012.6
2020-08-03T01:34:00+09:00,2.9,��쐼,4.4,��쐼,25.5,89.4,0,0,0,0,0,0,999.3,1012.6
2020-08-03T01:35:00+09:00,2.8,��쐼,4.4,��쐼,25.6,89.2,0,0,0,0,0,0,999.3,1012.6
2020-08-03T01:36:00+09:00,2.7,��쐼,4.4,��쐼,25.5,89,0,0,0,0,0,0,999.4,1012.7
2020-08-03T01:37:00+09:00,2.8,��쐼,4.4,��쐼,25.5,88.9,0,0,0,0,0,0,999.4,1012.7
2020-08-03T01:38:00+09:00,2.7,��쐼,4.4,��쐼,25.5,89.2,0,0,0,0,0,0,999.4,1012.7
2020-08-03T01:39:00+09:00,2.7,��쐼,4.4,��쐼,25.5,89.2,0,0,0,0,0,0,999.4,1012.7
2020-08-03T01:40:00+09:00,2.6,��쐼,3.8,��쐼,25.5,89.1,0,0,0,0,0,0,999.4,1012.7
2020-08-03T01:41:00+09:00,2.5,��쐼,3.8,��쐼,25.4,89.1,0,0,0,0,0,0,999.4,1012.7
2020-08-03T01:42:00+09:00,2.6,��쐼,3.9,��쐼,25.4,89.2,0,0,0,0,0,0,999.4,1012.7
2020-08-03T01:43:00+09:00,2.7,��쐼,4.2,��쐼,25.4,89.4,0,0,0,0,0,0,999.4,1012.7
2020-08-03T01:44:00+09:00,2.7,��,4.2,��쐼,25.4,89.7,0,0,0,0,0,0,999.4,1012.7
2020-08-03T01:45:00+09:00,2.8,��,4.2,��쐼,25.3,89.8,0,0,0,0,0,0,999.4,1012.7
2020-08-03T01:46:00+09:00,2.9,��,4.2,��쐼,25.2,89.9,0,0,0,0,0,0,999.4,1012.7
2020-08-03T01:47:00+09:00,2.9,��,4.2,��쐼,25.3,90.3,0,0,0,0,0,0,999.4,1012.7
2020-08-03T01:48:00+09:00,3,��쐼,4.2,��쐼,25.3,90.6,0,0,0,0,0,0,999.4,1012.7
2020-08-03T01:49:00+09:00,3,��쐼,4.5,��쐼,25.3,90.4,0,0,0,0,0,0,999.4,1012.7
2020-08-03T01:50:00+09:00,3.1,��쐼,4.8,��쐼,25.2,90.3,0,0,0,0,0,0,999.4,1012.7
2020-08-03T01:51:00+09:00,3.2,��쐼,4.8,��쐼,25.2,90.5,0,0,0,0,0,0,999.4,1012.7
2020-08-03T01:52:00+09:00,3.3,��쐼,4.8,��쐼,25.1,90.6,0,0,0,0,0,0,999.4,1012.7
2020-08-03T01:53:00+09:00,3.2,��쐼,4.8,��쐼,25.2,90.8,0,0,0,0,0,0,999.4,1012.7
2020-08-03T01:54:00+09:00,3.1,��쐼,4.8,��쐼,25.2,91,0,0,0,0,0,0,999.4,1012.7
2020-08-03T01:55:00+09:00,2.9,��쐼,4.8,��쐼,25.3,91.1,0,0,0,0,0,0,999.4,1012.7
2020-08-03T01:56:00+09:00,2.8,��쐼,4.8,��쐼,25.2,90.8,0,0,0,0,0,0,999.4,1012.7
2020-08-03T01:57:00+09:00,2.7,��쐼,4.8,��쐼,25.2,91,0,0,0,0,0,0,999.4,1012.7
2020-08-03T01:58:00+09:00,2.7,��쐼,4.8,��쐼,25.1,90.7,0,0,0,0,0,0,999.4,1012.7
2020-08-03T01:59:00+09:00,2.7,��쐼,4.8,��쐼,25.1,90.8,0,0,0,0,0,0,999.4,1012.7
2020-08-03T02:00:00+09:00,2.7,��쐼,4.7,��쐼,25.1,91.2,0,0,0,0,0,0,999.4,1012.7
2020-08-03T02:01:00+09:00,2.5,��쐼,4.6,��쐼,25.1,91.3,0,0,0,0,0,0,999.4,1012.7
2020-08-03T02:02:00+09:00,2.4,��쐼,4.3,��쐼,25.1,91.3,0,0,0,0,0,0,999.4,1012.7
2020-08-03T02:03:00+09:00,2.4,��쐼,4.3,��쐼,25.1,91.4,0,0,0,0,0,0,999.4,1012.7
2020-08-03T02:04:00+09:00,2.4,��쐼,4.3,��쐼,25.2,91.5,0,0,0,0,0,0,999.4,1012.7
2020-08-03T02:05:00+09:00,2.4,��쐼,4.3,��쐼,25.2,91.4,0,0,0,0,0,0,999.4,1012.7
2020-08-03T02:06:00+09:00,2.4,��쐼,4.3,��쐼,25.2,91.1,0,0,0,0,0,0,999.4,1012.7
2020-08-03T02:07:00+09:00,2.3,��쐼,4.3,��쐼,25.2,90.9,0,0,0,0,0,0,999.4,1012.7
2020-08-03T02:08:00+09:00,2.1,��쐼,4.1,��쐼,25.2,91,0,0,0,0,0,0,999.4,1012.7
2020-08-03T02:09:00+09:00,2,��쐼,3.8,��쐼,25.1,90.8,0,0,0,0,0,0,999.4,1012.7
2020-08-03T02:10:00+09:00,1.9,��쐼,3.5,��,25.2,91,0,0,0,0,0,0,999.4,1012.7
2020-08-03T02:11:00+09:00,1.9,��쐼,3.5,��,25.3,91,0,0,0,0,0,0,999.4,1012.7
2020-08-03T02:12:00+09:00,1.8,��쐼,3.5,��,25.3,90.7,0,0,0,0,0,0,999.4,1012.7
2020-08-03T02:13:00+09:00,1.8,��쐼,3.5,��,25.1,90.3,0,0,0,0,0,0,999.4,1012.7
2020-08-03T02:14:00+09:00,1.7,��쐼,3.5,��,25.1,90.4,0,0,0,0,0,0,999.4,1012.7
2020-08-03T02:15:00+09:00,1.7,��쐼,3.5,��,25.1,90.9,0,0,0,0,0,0,999.4,1012.7
2020-08-03T02:16:00+09:00,1.6,��쐼,3.5,��,25.2,91.3,0,0,0,0,0,0,999.4,1012.7
2020-08-03T02:17:00+09:00,1.6,��쐼,3.5,��,25,90.9,0,0,0,0,0,0,999.5,1012.8
2020-08-03T02:18:00+09:00,1.6,��쐼,3.5,��,25,91.4,0,0,0,0,0,0,999.5,1012.8
2020-08-03T02:19:00+09:00,1.5,��쐼,2.7,��,25,91.5,0,0,0,0,0,0,999.5,1012.8
2020-08-03T02:20:00+09:00,1.5,��쐼,2.7,��,24.9,91.4,0,0,0,0,0,0,999.5,1012.9
2020-08-03T02:21:00+09:00,1.5,��쐼,2.7,��,25,91.7,0,0,0,0,0,0,999.5,1012.8
2020-08-03T02:22:00+09:00,1.5,��쐼,2.7,��,25,91.9,0,0,0,0,0,0,999.6,1012.9
2020-08-03T02:23:00+09:00,1.5,��쐼,2.7,��,25.1,92.1,0,0,0,0,0,0,999.6,1012.9
2020-08-03T02:24:00+09:00,1.4,��쐼,2.3,��,25.3,91.9,0,0,0,0,0,0,999.6,1012.9
2020-08-03T02:25:00+09:00,1.5,��쐼,2.3,��,25.1,91.1,0,0,0,0,0,0,999.6,1012.9
2020-08-03T02:26:00+09:00,1.5,��쐼,2.3,��,25.1,91,0,0,0,0,0,0,999.6,1012.9
2020-08-03T02:27:00+09:00,1.5,��쐼,2.3,��,25.2,91.2,0,0,0,0,0,0,999.6,1012.9
2020-08-03T02:28:00+09:00,1.5,��쐼,2.3,��,25,90.8,0,0,0,0,0,0,999.6,1012.9
2020-08-03T02:29:00+09:00,1.5,��쐼,2.9,��,24.9,90.8,0,0,0,0,0,0,999.6,1013
2020-08-03T02:30:00+09:00,1.4,��쐼,2.9,��,24.9,91.4,0,0,0,0,0,0,999.6,1013
2020-08-03T02:31:00+09:00,1.5,��쐼,3.1,��,24.9,91.6,0,0,0,0,0,0,999.6,1013
2020-08-03T02:32:00+09:00,1.5,��쐼,3.1,��,24.9,91.9,0,0,0,0,0,0,999.6,1013
2020-08-03T02:33:00+09:00,1.6,��쐼,3.1,��,24.8,92.1,0,0,0,0,0,0,999.6,1013
2020-08-03T02:34:00+09:00,1.6,��,3.1,��,24.9,92.3,0,0,0,0,0,0,999.6,1013
2020-08-03T02:35:00+09:00,1.6,��,3.1,��,24.8,92.3,0,0,0,0,0,0,999.6,1013
2020-08-03T02:36:00+09:00,1.7,��,3.1,��,24.9,92.4,0,0,0,0,0,0,999.6,1013
2020-08-03T02:37:00+09:00,1.7,��,3.1,��,24.9,92.3,0,0,0,0,0,0,999.6,1013
2020-08-03T02:38:00+09:00,1.7,��,3.1,��,25,92.5,0,0,0,0,0,0,999.6,1012.9
2020-08-03T02:39:00+09:00,1.7,��,3.1,��,24.9,92.2,0,0,0,0,0,0,999.6,1013
2020-08-03T02:40:00+09:00,1.8,��,3.1,��,24.8,91.9,0,0,0,0,0,0,999.6,1013
2020-08-03T02:41:00+09:00,1.8,��,2.9,��,24.8,92.2,0,0,0,0,0,0,999.6,1013
2020-08-03T02:42:00+09:00,1.8,��,2.9,��,24.8,92.5,0,0,0,0,0,0,999.6,1013
2020-08-03T02:43:00+09:00,1.8,��,2.8,��,24.8,92.5,0,0,0,0,0,0,999.6,1013
2020-08-03T02:44:00+09:00,1.9,��,2.8,��,24.8,92.8,0,0,0,0,0,0,999.6,1013
2020-08-03T02:45:00+09:00,1.9,��,2.9,��쓌,24.8,92.8,0,0,0,0,0,0,999.6,1013
2020-08-03T02:46:00+09:00,1.9,��,2.9,��쓌,24.8,92.6,0,0,0,0,0,0,999.6,1013
2020-08-03T02:47:00+09:00,2,��,3.1,��,24.8,92.5,0,0,0,0,0,0,999.6,1013
2020-08-03T02:48:00+09:00,2,��,3.1,��,24.8,92.5,0,0,0,0,0,0,999.6,1013
2020-08-03T02:49:00+09:00,2.1,��,3.5,��,24.8,92.9,0,0,0,0,0,0,999.6,1013
2020-08-03T02:50:00+09:00,2.1,��,3.5,��,24.8,92.9,0,0,0,0,0,0,999.6,1013
2020-08-03T02:51:00+09:00,2.2,��쐼,3.5,��,24.8,93,0,0,0,0,0,0,999.6,1013
2020-08-03T02:52:00+09:00,2.2,��쐼,3.5,��,24.8,93.1,0,0,0,0,0,0,999.6,1013
2020-08-03T02:53:00+09:00,2.3,��쐼,3.5,��,24.8,93,0,0,0,0,0,0,999.6,1013
2020-08-03T02:54:00+09:00,2.3,��쐼,3.5,��,24.9,92.7,0,0,0,0,0,0,999.6,1013
2020-08-03T02:55:00+09:00,2.3,��쐼,3.5,��,24.9,92.7,0,0,0,0,0,0,999.6,1013
2020-08-03T02:56:00+09:00,2.3,��쐼,3.5,��,24.9,92.6,0,0,0,0,0,0,999.6,1013
2020-08-03T02:57:00+09:00,2.3,��쐼,3.5,��,24.9,92.5,0,0,0,0,0,0,999.7,1013.1
2020-08-03T02:58:00+09:00,2.4,��쐼,3.5,��,24.9,92.7,0,0,0,0,0,0,999.7,1013.1
2020-08-03T02:59:00+09:00,2.3,��쐼,3.7,��,25,92.8,0,0,0,0,0,0,999.7,1013
2020-08-03T03:00:00+09:00,2.3,��쐼,3.7,��,24.9,92.2,0,0,0,0,0,0,999.7,1013.1
2020-08-03T03:01:00+09:00,2.4,��쐼,3.7,��,25,92.3,0,0,0,0,0,0,999.7,1013
2020-08-03T03:02:00+09:00,2.4,��쐼,3.7,��,24.9,92,0,0,0,0,0,0,999.7,1013.1
2020-08-03T03:03:00+09:00,2.4,��쐼,3.7,��,24.9,92.4,0,0,0,0,0,0,999.7,1013.1
2020-08-03T03:04:00+09:00,2.4,��쐼,3.7,��,24.8,92.5,0,0,0,0,0,0,999.7,1013.1
2020-08-03T03:05:00+09:00,2.4,��쐼,3.7,��,24.8,92.6,0,0,0,0,0,0,999.7,1013.1
2020-08-03T03:06:00+09:00,2.3,��쐼,3.7,��,24.8,92.7,0,0,0,0,0,0,999.7,1013.1
2020-08-03T03:07:00+09:00,2.3,��쐼,3.7,��,24.8,93,0,0,0,0,0,0,999.8,1013.2
2020-08-03T03:08:00+09:00,2.3,��쐼,3.7,��,24.8,93.2,0,0,0,0,0,0,999.8,1013.2
2020-08-03T03:09:00+09:00,2.2,��쐼,3.7,��,24.8,93.4,0,0,0,0,0,0,999.8,1013.2
2020-08-03T03:10:00+09:00,2.2,��쐼,3.4,��,24.8,93.5,0,0,0,0,0,0,999.8,1013.2
2020-08-03T03:11:00+09:00,2.2,��쐼,3.4,��,24.8,93.5,0,0,0,0,0,0,999.8,1013.2
2020-08-03T03:12:00+09:00,2.2,��쐼,3.5,��쐼,24.8,93.4,0,0,0,0,0,0,999.8,1013.2
2020-08-03T03:13:00+09:00,2.3,��쐼,3.7,��쐼,24.9,93.3,0,0,0,0,0,0,999.8,1013.2
2020-08-03T03:14:00+09:00,2.3,��쐼,3.7,��쐼,24.9,93.2,0,0,0,0,0,0,999.9,1013.3
2020-08-03T03:15:00+09:00,2.4,��쐼,3.9,��쐼,24.9,93.2,0,0,0,0,0,0,999.9,1013.3
2020-08-03T03:16:00+09:00,2.5,��쐼,3.9,��쐼,24.9,93,0,0,0,0,0,0,999.9,1013.3
2020-08-03T03:17:00+09:00,2.6,��쐼,3.9,��쐼,24.9,93,0,0,0,0,0,0,999.9,1013.3
2020-08-03T03:18:00+09:00,2.6,��쐼,3.9,��쐼,24.9,93,0,0,0,0,0,0,999.9,1013.3
2020-08-03T03:19:00+09:00,2.6,��쐼,3.9,��쐼,24.9,93,0,0,0,0,0,0,999.9,1013.3
2020-08-03T03:20:00+09:00,2.7,��쐼,3.9,��쐼,24.9,93.1,0,0,0,0,0,0,999.9,1013.3
2020-08-03T03:21:00+09:00,2.6,��쐼,3.9,��쐼,24.8,93.1,0,0,0,0,0,0,1000,1013.4
2020-08-03T03:22:00+09:00,2.6,��쐼,3.9,��쐼,24.9,93.3,0,0,0,0,0,0,1000,1013.4
2020-08-03T03:23:00+09:00,2.5,��쐼,3.9,��쐼,24.9,93.2,0,0,0,0,0,0,1000,1013.4
2020-08-03T03:24:00+09:00,2.5,��쐼,3.9,��쐼,24.9,93.2,0,0,0,0,0,0,1000,1013.4
2020-08-03T03:25:00+09:00,2.4,��쐼,3.5,��,25,93.3,0,0,0,0,0,0,1000,1013.4
2020-08-03T03:26:00+09:00,2.4,��쐼,3.5,��,24.9,93.1,0,0,0,0,0,0,1000,1013.4
2020-08-03T03:27:00+09:00,2.3,��쐼,3.5,��,25,93,0,0,0,0,0,0,1000.1,1013.5
2020-08-03T03:28:00+09:00,2.3,��쐼,3.5,��,25,92.9,0,0,0,0,0,0,1000.1,1013.5
2020-08-03T03:29:00+09:00,2.2,��쐼,3.5,��,25,92.8,0,0,0,0,0,0,1000.1,1013.5
2020-08-03T03:30:00+09:00,2.2,��쐼,3.4,��,25,92.8,0,0,0,0,0,0,1000.1,1013.5
2020-08-03T03:31:00+09:00,2.2,��쐼,3.4,��,25,92.8,0,0,0,0,0,0,1000.1,1013.5
2020-08-03T03:32:00+09:00,2,��,3.4,��,25,92.8,0,0,0,0,0,0,1000.1,1013.5
2020-08-03T03:33:00+09:00,1.9,��,3.4,��,25,92.8,0,0,0,0,0,0,1000,1013.4
2020-08-03T03:34:00+09:00,1.9,��,3.4,��,25,92.8,0,0,0,0,0,0,1000,1013.4
2020-08-03T03:35:00+09:00,1.8,��,3.4,��,25,92.8,0,0,0,0,0,0,1000,1013.4
2020-08-03T03:36:00+09:00,1.8,��,2.8,��,25,92.8,0,0,0,0,0,0,1000,1013.4
2020-08-03T03:37:00+09:00,1.7,��,2.8,��,25,92.9,0,0,0,0,0,0,1000,1013.4
2020-08-03T03:38:00+09:00,1.5,��,2.8,��,25,92.9,0,0,0,0,0,0,1000,1013.4
2020-08-03T03:39:00+09:00,1.5,��,2.8,��,25,93,0,0,0,0,0,0,1000,1013.4
2020-08-03T03:40:00+09:00,1.3,��,2.7,��,25,92.9,0,0,0,0,0,0,999.9,1013.3
2020-08-03T03:41:00+09:00,1.3,��,2.7,��,25.1,92.9,0,0,0,0,0,0,999.9,1013.2
2020-08-03T03:42:00+09:00,1.2,��,2.7,��,25.1,92.7,0,0,0,0,0,0,999.9,1013.2
2020-08-03T03:43:00+09:00,1.2,��,2.7,��,25.1,92.6,0,0,0,0,0,0,999.9,1013.2
2020-08-03T03:44:00+09:00,1.1,��,2.7,��,25.1,92.4,0,0,0,0,0,0,999.9,1013.2
2020-08-03T03:45:00+09:00,1.1,��,2.5,��,25.1,92.4,0,0,0,0,0,0,999.9,1013.2
2020-08-03T03:46:00+09:00,1,��,2.3,�쐼,25.2,92.3,0,0,0,0,0,0,999.9,1013.2
2020-08-03T03:47:00+09:00,1.1,��,3.2,��쐼,25.2,92,0,0,0,0,0,0,999.9,1013.2
2020-08-03T03:48:00+09:00,1.2,��,3.2,��쐼,25.2,91.8,0,0,0,0,0,0,999.9,1013.2
2020-08-03T03:49:00+09:00,1.4,��,3.2,��쐼,25.3,91.9,0,0,0,0,0,0,999.9,1013.2
2020-08-03T03:50:00+09:00,1.5,��,3.5,��쐼,25.2,91.7,0,0,0,0,0,0,999.9,1013.2
2020-08-03T03:51:00+09:00,1.6,��,3.6,��,25.2,91.5,0,0,0,0,0,0,999.9,1013.2
2020-08-03T03:52:00+09:00,1.6,��,3.6,��,25.2,91.4,0,0,0,0,0,0,999.9,1013.2
2020-08-03T03:53:00+09:00,1.7,��,3.6,��,25.3,91.4,0,0,0,0,0,0,999.9,1013.2
2020-08-03T03:54:00+09:00,1.7,��,3.6,��,25.2,91.3,0,0,0,0,0,0,999.9,1013.2
2020-08-03T03:55:00+09:00,1.7,��,3.6,��,25.2,91.3,0,0,0,0,0,0,999.9,1013.2
2020-08-03T03:56:00+09:00,1.8,��,3.6,��,25.1,91.1,0,0,0,0,0,0,999.9,1013.2
2020-08-03T03:57:00+09:00,1.7,��,3.6,��,25.1,91,0,0,0,0,0,0,999.9,1013.2
2020-08-03T03:58:00+09:00,1.5,��,3.6,��,25.1,91.2,0,0,0,0,0,0,999.9,1013.2
2020-08-03T03:59:00+09:00,1.4,��,3.6,��,25.2,91.5,0,0,0,0,0,0,1000,1013.3
2020-08-03T04:00:00+09:00,1.4,��,3.6,��,25.2,91.7,0,0,0,0,0,0,1000,1013.3
2020-08-03T04:01:00+09:00,1.4,��,3,��,25.2,91.5,0,0,0,0,0,0,1000,1013.3
2020-08-03T04:02:00+09:00,1.4,��,3,��,25.3,91.6,0,0,0,0,0,0,1000,1013.3
2020-08-03T04:03:00+09:00,1.3,��,3,��,25.2,91.2,0,0,0,0,0,0,1000,1013.3
2020-08-03T04:04:00+09:00,1.3,��,3,��,25.3,91.4,0,0,0,0,0,0,1000,1013.3
2020-08-03T04:05:00+09:00,1.3,��쐼,3,��,25.2,91.3,0,0,0,0,0,0,1000,1013.3
2020-08-03T04:06:00+09:00,1.4,��쐼,2.7,��쐼,25.2,91.4,0,0,0,0,0,0,1000,1013.3
2020-08-03T04:07:00+09:00,1.4,��쐼,2.7,��쐼,25.3,91.8,0,0,0,0,0,0,1000.1,1013.4
2020-08-03T04:08:00+09:00,1.5,��쐼,2.7,��쐼,25.2,91.4,0,0,0,0,0,0,1000.1,1013.4
2020-08-03T04:09:00+09:00,1.6,��쐼,2.7,��,25.1,91.3,0,0,0,0,0,0,1000.1,1013.5
2020-08-03T04:10:00+09:00,1.6,��쐼,2.7,��,25.1,91.7,0,0,0,0,0,0,1000.1,1013.5
2020-08-03T04:11:00+09:00,1.6,��쐼,2.7,��,25.1,91.8,0,0,0,0,0,0,1000.1,1013.5
2020-08-03T04:12:00+09:00,1.7,��쐼,2.7,��,25.1,92.2,0,0,0,0,0,0,1000.1,1013.5
2020-08-03T04:13:00+09:00,1.8,��쐼,2.7,��,25.1,92,0,0,0,0,0,0,1000.1,1013.5
2020-08-03T04:14:00+09:00,1.9,��쐼,2.7,��,25,92.2,0,0,0,0,0,0,1000.1,1013.5
2020-08-03T04:15:00+09:00,1.8,��쐼,2.7,��,25,92.6,0,0,0,0,0,0,1000.2,1013.6
2020-08-03T04:16:00+09:00,1.8,��쐼,2.7,��,25.1,93,0,0,0,0,0,0,1000.2,1013.6
2020-08-03T04:17:00+09:00,1.8,��쐼,2.7,��,25.1,93.2,0,0,0,0,0,0,1000.2,1013.6
2020-08-03T04:18:00+09:00,1.7,��쐼,2.7,��,25.1,93,0,0,0,0,0,0,1000.2,1013.6
2020-08-03T04:19:00+09:00,1.6,��쐼,2.6,��쐼,25.1,93.1,0,0,0,0,0,0,1000.2,1013.6
2020-08-03T04:20:00+09:00,1.5,��쐼,2.5,��,25.1,93.3,0,0,0,0,0,0,1000.2,1013.6
2020-08-03T04:21:00+09:00,1.4,��쐼,2.5,��,25.1,93.3,0,0,0,0,0,0,1000.2,1013.6
2020-08-03T04:22:00+09:00,1.4,��,2.5,��,25.2,93.2,0,0,0,0,0,0,1000.2,1013.5
2020-08-03T04:23:00+09:00,1.4,��,2.9,��쐼,25.2,93.2,0,0,0,0,0,0,1000.2,1013.5
2020-08-03T04:24:00+09:00,1.4,��,3.2,��,25.2,93,0,0,0,0,0,0,1000.2,1013.5
2020-08-03T04:25:00+09:00,1.4,��,3.2,��,25.2,93,0,0,0,0,0,0,1000.2,1013.5
2020-08-03T04:26:00+09:00,1.5,��,3.2,��,25.3,93,0,0,0,0,0,0,1000.2,1013.5
2020-08-03T04:27:00+09:00,1.6,��,3.3,��,25.3,92.9,0,0,0,0,0,0,1000.2,1013.5
2020-08-03T04:28:00+09:00,1.6,��,3.3,��,25.3,92.8,0,0,0,0,0,0,1000.2,1013.5
2020-08-03T04:29:00+09:00,1.7,��,3.3,��,25.3,92.8,0,0,0,0,0,0,1000.2,1013.5
2020-08-03T04:30:00+09:00,1.7,��,3.3,��,25.3,92.7,0,0,0,0,0,0,1000.2,1013.5
2020-08-03T04:31:00+09:00,1.8,��,3.3,��,25.3,92.8,0,0,0,0,0,0,1000.2,1013.5
2020-08-03T04:32:00+09:00,1.8,��,3.3,��,25.3,92.8,0,0,0,0,0,0,1000.2,1013.5
2020-08-03T04:33:00+09:00,1.9,��,3.3,��,25.3,92.9,0,0,0,0,0,0,1000.3,1013.6
2020-08-03T04:34:00+09:00,1.9,��,3.3,��,25.3,92.7,0,0,0,0,0,0,1000.2,1013.5
2020-08-03T04:35:00+09:00,2,��,3.3,��,25.3,92.8,0,0,0,0,0,0,1000.3,1013.6
2020-08-03T04:36:00+09:00,2,��,3.3,��,25.3,92.6,0,0,0,0,0,0,1000.2,1013.5
2020-08-03T04:37:00+09:00,2,��,3.8,��,25.3,92.5,0,0,0,0,0,0,1000.2,1013.5
2020-08-03T04:38:00+09:00,2,��,3.8,��,25.3,92.6,0,0,0,0,0,0,1000.2,1013.5
2020-08-03T04:39:00+09:00,2,��,4,��,25.3,92.8,0,0,0,0,0,0,1000.2,1013.5
2020-08-03T04:40:00+09:00,2.1,��,4,��,25.3,92.8,0,0,0,0,0,0,1000.2,1013.5
2020-08-03T04:41:00+09:00,2.1,��,4,��,25.3,92.9,0,0,0,0,0,0,1000.2,1013.5
2020-08-03T04:42:00+09:00,2.1,��,4,��,25.3,93,0,0,0,0,0,0,1000.2,1013.5
2020-08-03T04:43:00+09:00,2,��,4,��,25.3,93,0,0,0,0,0,0,1000.2,1013.5
2020-08-03T04:44:00+09:00,2,��,4,��,25.3,93,0,0,0,0,0,0,1000.2,1013.5
2020-08-03T04:45:00+09:00,2,��,4,��,25.3,92.9,0,0,0,0,0,0,1000.2,1013.5
2020-08-03T04:46:00+09:00,2.1,��,4,��,25.3,92.7,0,0,0,0,0,0,1000.2,1013.5
2020-08-03T04:47:00+09:00,2.2,��,4.1,��쐼,25.3,92.5,0,0,0,0,0,0,1000.3,1013.6
2020-08-03T04:48:00+09:00,2.2,��,4.1,��쐼,25.3,92.6,0,0,0,0,0,0,1000.3,1013.6
2020-08-03T04:49:00+09:00,2.3,��,4.1,��쐼,25.3,92.6,0,0,0,0,0,0,1000.3,1013.6
2020-08-03T04:50:00+09:00,2.4,��쐼,4.1,��쐼,25.3,92.6,0,0,0,0,0,0,1000.3,1013.6
2020-08-03T04:51:00+09:00,2.4,��쐼,4.1,��쐼,25.3,92.7,0,0,0,0,0,0,1000.3,1013.6
2020-08-03T04:52:00+09:00,2.5,��쐼,4.1,��쐼,25.3,92.7,0,0,0,0,0,0,1000.3,1013.6
2020-08-03T04:53:00+09:00,2.6,��쐼,4.1,��쐼,25.2,92.7,0,0,0,0,0,0,1000.4,1013.8
2020-08-03T04:54:00+09:00,2.8,��쐼,4.1,��쐼,25.3,92.9,0,0,0,0,0,0,1000.4,1013.7
2020-08-03T04:55:00+09:00,2.8,��쐼,4.3,��쐼,25.2,93.1,0,0,0,0,0,0,1000.4,1013.8
2020-08-03T04:56:00+09:00,2.8,��쐼,4.3,��쐼,25.3,93.2,0,0,0,0,0,0,1000.4,1013.7
2020-08-03T04:57:00+09:00,2.8,��쐼,4.3,��쐼,25.2,93.2,0,0,0,0,0,0,1000.4,1013.8
2020-08-03T04:58:00+09:00,2.7,��쐼,4.3,��쐼,25.2,93.1,0,0,0,0,0,0,1000.4,1013.8
2020-08-03T04:59:00+09:00,2.6,��쐼,4.3,��쐼,25.2,93,0,0,0,0,0,0,1000.4,1013.8
2020-08-03T05:00:00+09:00,2.5,��쐼,4.3,��쐼,25.2,93.1,0,0,0,0,0,0,1000.4,1013.8
2020-08-03T05:01:00+09:00,2.5,��쐼,4.3,��쐼,25.1,93.1,0,0,0,0,0,0,1000.4,1013.8
2020-08-03T05:02:00+09:00,2.4,��쐼,4.3,��쐼,25,92.3,0,0,0,0,0,0,1000.4,1013.8
2020-08-03T05:03:00+09:00,2.2,��쐼,4.3,��쐼,25.2,93.4,0,0,0,0,0,0,1000.4,1013.8
2020-08-03T05:04:00+09:00,2.1,��쐼,4.3,��쐼,24.9,93,0,0,0,0,0,0,1000.4,1013.8
2020-08-03T05:05:00+09:00,1.9,��쐼,3.6,��쐼,25,93.1,0,0,0,0,0,0,1000.4,1013.8
2020-08-03T05:06:00+09:00,1.7,��쐼,3.3,�쐼,24.7,93,0,0,0,0,0,0,1000.4,1013.8
2020-08-03T05:07:00+09:00,1.6,�쐼,3.1,��,24.6,92.6,0,0,0,0,0,0,1000.4,1013.8
2020-08-03T05:08:00+09:00,1.5,�쐼,3.1,��,24.8,93.9,0,0,0,0,0,0,1000.4,1013.8
2020-08-03T05:09:00+09:00,1.4,��쐼,3.1,��,24.9,95.1,0,0,0,0,0,0,1000.4,1013.8
2020-08-03T05:10:00+09:00,1.3,��쐼,3.1,��,25,95.3,0,0,0,0,0,0,1000.4,1013.8
2020-08-03T05:11:00+09:00,1.3,��쐼,3.1,��,24.8,94.7,0,0,0,0,0,0,1000.4,1013.8
2020-08-03T05:12:00+09:00,1.2,��쐼,2.5,��,24.9,94.2,0,0,0,0,0,0,1000.4,1013.8
2020-08-03T05:13:00+09:00,1.1,��쐼,2.5,��,24.9,94.7,0,0,0,0,0,0,1000.4,1013.8
2020-08-03T05:14:00+09:00,1.1,��쐼,2.5,��,24.7,93.4,0,0,0,0,0,0,1000.5,1013.9
2020-08-03T05:15:00+09:00,1,��쐼,2.5,��,24.7,93,0,0,0,0,0,0,1000.5,1013.9
2020-08-03T05:16:00+09:00,0.9,�쐼,2.5,��,24.5,92.4,0,0,0,0,0,0,1000.5,1013.9
2020-08-03T05:17:00+09:00,0.9,�쐼,2.5,��,24.6,93,0,0,0,0,0,0,1000.5,1013.9